Regional Weather Roundup
Issued by NWS Goodland, KS

Home | Current Version | Previous Version | Graphics & Text | Print | Product List | Glossary On
Versions: 1 2 3 4 5 6 7 8 9 10 11 12 13 14 15 16 17 18 19 20 21 22 23 24 25 26 27 28 29 30 31 32 33 34 35 36 37 38 39 40 41 42 43 44 45 46 47 48 49 50
000
ASUS43 KGLD 020908
RWRGLD

GOODLAND FORECAST AREA HOURLY WEATHER ROUNDUP
NATIONAL WEATHER SERVICE GOODLAND KS
300 AM MDT SUN AUG 02 2015

...OFFICIAL OBSERVATIONS...

CITY           SKY/WX    TMP DP  RH WIND       PRES   REMARKS
GOODLAND KS    PTCLDY    69  64  84 SW7       29.99F
HILL CITY KS   MOCLDY    69  65  86 CALM      29.94S
IMPERIAL NEB   MOCLDY    67  58  72 CALM      29.97F
MCCOOK NEB     PTCLDY    68  60  75 CALM      29.94S
AKRON CO       MOCLDY    65  58  78 NE7       30.05F
BURLINGTON CO  PTCLDY    65  62  90 S7        30.02F
LIMON CO       PTCLDY    55  52  89 N3        30.11F
$$

...UNOFFICIAL OBSERVATIONS...

CITY           SKY/WX    TMP DP  RH WIND       PRES   REMARKS
SHARON SPRINGS   N/A     69  65  89 SE5         N/A
KIT CARSON CO    N/A     67  61  81 MISG        N/A
YUMA CO          N/A     64  60  88 CALM        N/A
$$


USA.gov is the U.S. government's official web portal to all federal, state and local government web resources and services.